User: anonymous   Login
Location: Cranbrook Institute of Science
(42.5830°N, 83.2450°W)
Time: 12:40:01
(UTC-04:00)
Language:

CZ-4B R/B - Orbit

View from above orbital plane
View from above orbital plane
View from above satellite
View from above satellite

Ground track
Ground track

The orbit data is extracted from the following two-line orbital elements,

1 29093U 06015B   17142.85876179 +.00003460 +00000-0 +83603-4 0  9998
2 29093 097.4926 253.1628 0065421 049.9550 310.7409 15.39672672613630
Epoch (UTC): 22 May 2017 20:36:37
Eccentricity: 0.0065421
inclination: 97.4926°
perigee height: 402 km
apogee height: 492 km
right ascension of ascending node: 253.1628°
argument of perigee: 49.9550°
revolutions per day: 15.39672672
mean anomaly at epoch: 310.7409°
orbit number at epoch: 61363

The dashed part of the orbit path shows where the satellite is in the earth's shadow,  

DLR